Time,TemperatureF,DewpointF,PressureIn,WindDirection,WindDirectionDegrees,WindSpeedMPH,WindSpeedGustMPH,Humidity,HourlyPrecipIn,Conditions,Clouds,dailyrainin,SoftwareType,DateUTC
2013-08-26 00:01:00,70.0,33.0,29.58,North,-999,0.0,0.0,25,0.00,,,-99.99,,2013-08-26 07:01:00,
2013-08-26 00:21:00,70.0,30.0,29.58,North,-999,0.0,0.0,23,0.00,,,-99.99,,2013-08-26 07:21:00,
2013-08-26 00:32:00,70.0,30.0,29.58,North,-999,0.0,0.0,23,0.00,,,-99.99,,2013-08-26 07:32:00,
2013-08-26 00:52:00,70.0,34.0,29.59,North,-999,0.0,0.0,27,0.00,,,-99.99,,2013-08-26 07:52:00,
2013-08-26 01:02:00,70.0,34.0,29.59,North,-999,0.0,0.0,27,0.00,,,-99.99,,2013-08-26 08:02:00,
2013-08-26 01:22:00,70.0,34.0,29.59,North,-999,0.0,0.0,26,0.00,,,-99.99,,2013-08-26 08:22:00,
2013-08-26 01:31:00,70.0,34.0,29.59,North,-999,0.0,0.0,26,0.00,,,-99.99,,2013-08-26 08:31:00,
2013-08-26 01:52:00,69.0,33.0,29.59,North,-999,0.0,0.0,26,0.00,,,-99.99,,2013-08-26 08:52:00,
2013-08-26 02:02:00,69.0,33.0,29.59,North,-999,0.0,0.0,26,0.00,,,-99.99,,2013-08-26 09:02:00,
2013-08-26 02:53:00,72.0,26.0,29.58,North,-999,0.0,0.0,18,0.00,,,-99.99,,2013-08-26 09:53:00,
2013-08-26 03:03:00,72.0,26.0,29.58,North,-999,0.0,0.0,18,0.00,,,-99.99,,2013-08-26 10:03:00,
2013-08-26 03:52:00,72.0,26.0,29.58,North,-999,0.0,0.0,18,0.00,,,-99.99,,2013-08-26 10:52:00,
2013-08-26 04:02:00,72.0,26.0,29.58,North,-999,0.0,0.0,18,0.00,,,-99.99,,2013-08-26 11:02:00,
2013-08-26 04:52:00,72.0,29.0,29.58,North,-999,0.0,0.0,20,0.00,,,-99.99,,2013-08-26 11:52:00,
2013-08-26 05:01:00,72.0,29.0,29.58,North,-999,0.0,0.0,20,0.00,,,-99.99,,2013-08-26 12:01:00,
2013-08-26 05:52:00,73.0,40.0,29.58,North,-999,0.0,0.0,30,0.00,,,-99.99,,2013-08-26 12:52:00,
2013-08-26 06:02:00,73.0,40.0,29.58,North,-999,0.0,0.0,30,0.00,,,-99.99,,2013-08-26 13:02:00,
2013-08-26 06:52:00,72.0,41.0,29.58,North,-999,0.0,0.0,32,0.00,,,-99.99,,2013-08-26 13:52:00,
2013-08-26 07:02:00,72.0,41.0,29.58,North,-999,0.0,0.0,32,0.00,,,-99.99,,2013-08-26 14:02:00,
2013-08-26 07:52:00,73.0,41.0,29.59,North,-999,0.0,0.0,32,0.00,,,-99.99,,2013-08-26 14:52:00,
2013-08-26 08:01:00,73.0,41.0,29.59,North,-999,0.0,0.0,32,0.00,,,-99.99,,2013-08-26 15:01:00,
2013-08-26 10:53:00,81.0,45.0,29.58,SW,230,1.0,1.0,28,0.00,,,-99.99,,2013-08-26 17:53:00,
2013-08-26 11:01:00,81.0,45.0,29.58,SW,230,1.0,1.0,28,0.00,,,-99.99,,2013-08-26 18:01:00,
2013-08-26 11:21:00,83.0,50.0,29.58,North,0,0.0,1.0,32,0.00,,,-99.99,,2013-08-26 18:21:00,
2013-08-26 11:30:00,84.0,53.0,29.56,North,-999,0.0,0.0,35,0.00,,,-99.99,,2013-08-26 18:30:00,
2013-08-26 11:31:00,83.0,50.0,29.58,North,0,0.0,1.0,32,0.00,,,-99.99,,2013-08-26 18:31:00,
2013-08-26 11:52:00,84.0,53.0,29.56,North,-999,0.0,0.0,35,0.00,,,-99.99,,2013-08-26 18:52:00,
2013-08-26 12:01:00,84.0,53.0,29.56,North,-999,0.0,0.0,35,0.00,,,-99.99,,2013-08-26 19:01:00,
2013-08-26 12:11:00,84.0,53.0,29.56,North,-999,0.0,0.0,35,0.00,,,-99.99,,2013-08-26 19:11:00,
2013-08-26 12:22:00,84.0,53.0,29.56,North,-999,0.0,0.0,35,0.00,,,-99.99,,2013-08-26 19:22:00,
2013-08-26 12:52:00,85.0,54.0,29.53,SSW,210,2.0,5.0,35,0.00,,,-99.99,,2013-08-26 19:52:00,
2013-08-26 13:02:00,85.0,54.0,29.53,SSW,210,2.0,5.0,35,0.00,,,-99.99,,2013-08-26 20:02:00,
2013-08-26 13:21:00,85.0,56.0,29.52,SSE,150,2.0,5.0,37,0.00,,,-99.99,,2013-08-26 20:21:00,
2013-08-26 13:32:00,85.0,56.0,29.52,SSE,150,2.0,5.0,37,0.00,,,-99.99,,2013-08-26 20:32:00,
2013-08-26 13:52:00,85.0,56.0,29.50,North,-999,0.0,0.0,37,0.00,,,-99.99,,2013-08-26 20:52:00,
2013-08-26 14:01:00,85.0,56.0,29.50,North,-999,0.0,0.0,37,0.00,,,-99.99,,2013-08-26 21:01:00,
2013-08-26 14:22:00,86.0,58.0,29.49,North,-999,0.0,0.0,39,0.00,,,-99.99,,2013-08-26 21:22:00,
2013-08-26 14:35:00,86.0,58.0,29.49,North,-999,0.0,0.0,39,0.00,,,-99.99,,2013-08-26 21:35:00,
2013-08-26 14:55:00,86.0,55.0,29.48,SSE,160,2.0,3.0,35,0.00,,,-99.99,,2013-08-26 21:55:00,
2013-08-26 15:07:00,86.0,55.0,29.48,SSE,160,2.0,3.0,35,0.00,,,-99.99,,2013-08-26 22:07:00,
2013-08-26 15:53:00,86.0,45.0,29.48,North,-999,0.0,0.0,24,0.00,,,-99.99,,2013-08-26 22:53:00,
2013-08-26 16:02:00,86.0,45.0,29.48,North,-999,0.0,0.0,24,0.00,,,-99.99,,2013-08-26 23:02:00,
2013-08-26 16:21:00,84.0,44.0,29.48,SSW,200,8.0,8.0,25,0.00,,,-99.99,,2013-08-26 23:21:00,
2013-08-26 16:34:00,84.0,44.0,29.48,SSW,200,8.0,8.0,25,0.00,,,-99.99,,2013-08-26 23:34:00,
2013-08-26 16:52:00,82.0,38.0,29.48,SSW,200,6.0,6.0,21,0.00,,,-99.99,,2013-08-26 23:52:00,
2013-08-26 17:01:00,82.0,38.0,29.48,SSW,200,6.0,6.0,21,0.00,,,-99.99,,2013-08-27 00:01:00,
2013-08-26 17:21:00,82.0,38.0,29.49,SSW,200,5.0,6.0,21,0.00,,,-99.99,,2013-08-27 00:21:00,
2013-08-26 17:32:00,82.0,38.0,29.49,SSW,200,5.0,6.0,21,0.00,,,-99.99,,2013-08-27 00:32:00,
2013-08-26 17:52:00,81.0,37.0,29.49,SSW,200,1.0,2.0,21,0.00,,,-99.99,,2013-08-27 00:52:00,
2013-08-26 18:01:00,81.0,37.0,29.49,SSW,200,1.0,2.0,21,0.00,,,-99.99,,2013-08-27 01:01:00,
2013-08-26 18:21:00,81.0,33.0,29.50,SSW,200,1.0,1.0,18,0.00,,,-99.99,,2013-08-27 01:21:00,
2013-08-26 18:32:00,81.0,33.0,29.50,SSW,200,1.0,1.0,18,0.00,,,-99.99,,2013-08-27 01:32:00,
2013-08-26 18:52:00,80.0,30.0,29.50,North,-999,0.0,0.0,16,0.00,,,-99.99,,2013-08-27 01:52:00,
2013-08-26 19:02:00,80.0,30.0,29.50,North,-999,0.0,0.0,16,0.00,,,-99.99,,2013-08-27 02:02:00,
2013-08-26 19:21:00,80.0,30.0,29.51,North,-999,0.0,0.0,16,0.00,,,-99.99,,2013-08-27 02:21:00,
2013-08-26 19:32:00,80.0,30.0,29.51,North,-999,0.0,0.0,16,0.00,,,-99.99,,2013-08-27 02:32:00,
2013-08-26 19:52:00,78.0,37.0,29.51,North,-999,0.0,0.0,23,0.00,,,-99.99,,2013-08-27 02:52:00,
2013-08-26 20:02:00,78.0,37.0,29.51,North,-999,0.0,0.0,23,0.00,,,-99.99,,2013-08-27 03:02:00,
2013-08-26 20:22:00,76.0,38.0,29.51,North,-999,0.0,0.0,25,0.00,,,-99.99,,2013-08-27 03:22:00,
2013-08-26 20:36:00,76.0,38.0,29.51,North,-999,0.0,0.0,25,0.00,,,-99.99,,2013-08-27 03:36:00,
2013-08-26 20:58:00,76.0,38.0,29.52,North,-999,0.0,0.0,25,0.00,,,-99.99,,2013-08-27 03:58:00,
2013-08-26 21:07:00,76.0,38.0,29.52,North,-999,0.0,0.0,25,0.00,,,-99.99,,2013-08-27 04:07:00,
2013-08-26 21:54:00,77.0,35.0,29.54,North,-999,0.0,0.0,22,0.00,,,-99.99,,2013-08-27 04:54:00,
2013-08-26 22:05:00,77.0,35.0,29.54,North,-999,0.0,0.0,22,0.00,,,-99.99,,2013-08-27 05:05:00,
2013-08-26 22:23:00,78.0,37.0,29.53,North,-999,0.0,0.0,23,0.00,,,-99.99,,2013-08-27 05:23:00,
2013-08-26 22:34:00,78.0,37.0,29.53,North,-999,0.0,0.0,23,0.00,,,-99.99,,2013-08-27 05:34:00,
2013-08-26 22:52:00,77.0,52.0,29.53,North,-999,0.0,0.0,42,0.00,,,-99.99,,2013-08-27 05:52:00,
2013-08-26 23:02:00,77.0,52.0,29.53,North,-999,0.0,0.0,42,0.00,,,-99.99,,2013-08-27 06:02:00,
2013-08-26 23:21:00,77.0,51.0,29.52,North,-999,0.0,0.0,41,0.00,,,-99.99,,2013-08-27 06:21:00,
2013-08-26 23:31:00,77.0,51.0,29.52,North,-999,0.0,0.0,41,0.00,,,-99.99,,2013-08-27 06:31:00,
2013-08-26 23:52:00,76.0,46.0,29.50,North,-999,0.0,0.0,34,0.00,,,-99.99,,2013-08-27 06:52:00,